Location: Acequia del Cap
(41.7000°N, 0.6167°E)
Time: 23:49:38
(UTC+00:00)

Aureole 3 - Pass Details

Date: 07 August 2020
Orbit: 381 x 1234 km, 82.5° (Epoch: 22 September)

Event Time Altitude Azimuth Distance (km) Brightness Sun altitude
Rises 04:15:16 0° 193° (SSW) 2,955 6.6 -8.0°
Reaches altitude 10° 04:17:17 10° 195° (SSW) 2,163 5.9 -7.7°
Maximum altitude 04:22:10 73° 279° (W) 874 4.2 -6.9°
Drops below altitude 10° 04:28:28 10° 5° (N) 2,761 7.4 -5.8°
Sets 04:31:20 0° 7° (N) 3,839 8.1 -5.4°
